Location: Star Hoppers Observatory
(42.7905°N, 83.6127°W)
Time: 00:17:30
(UTC-05:00)

NOSS 3-1 (A) - Visible Passes

Search period start: 24 January 2018 00:00
Search period end: 03 February 2018 00:00
Orbit: 816 x 1397 km, 63.4° (Epoch: 14 January)

Date Brightness Start Highest point End Pass type
(mag) Time Alt. Az. Time Alt. Az. Time Alt. Az.
24 Jan 4.1 06:04:44 10° SSW 06:10:14 54° ESE 06:16:24 10° NE visible
25 Jan 5.0 05:20:50 10° S 05:25:48 32° ESE 05:31:15 10° NE visible
25 Jan 3.7 07:10:48 10° WSW 07:16:23 47° NW 07:22:44 10° NNE visible
26 Jan 5.7 04:37:41 10° SSE 04:41:31 19° ESE 04:45:36 10° ENE visible
26 Jan 3.3 06:25:47 10° SW 06:31:30 72° NW 06:38:01 10° NNE visible
27 Jan 3.5 05:42:40 19° SSW 05:46:47 73° ESE 05:53:12 10° NE visible
28 Jan 4.3 05:00:30 34° SSE 05:02:16 44° ESE 05:08:12 10° NE visible
28 Jan 4.0 06:48:01 11° WSW 06:53:14 37° NW 06:59:22 10° NNE visible
29 Jan 5.1 04:18:03 26° ESE 04:18:03 26° ESE 04:22:55 10° NE visible
29 Jan 3.5 06:05:33 31° WSW 06:08:15 55° NW 06:14:41 10° NNE visible
30 Jan 6.0 03:35:24 13° E 03:35:24 13° E 03:36:54 10° ENE visible
30 Jan 3.2 05:22:53 75° SW 05:23:25 85° NW 05:29:56 10° NE visible
30 Jan 4.7 07:10:41 10° W 07:15:25 23° NNW 07:20:38 10° NNE visible
31 Jan 4.1 04:40:04 49° ENE 04:40:04 49° ENE 04:45:04 10° NE visible
31 Jan 4.3 06:27:33 22° WNW 06:30:09 30° NW 06:35:59 10° NNE visible
01 Feb 5.4 03:57:09 24° ENE 03:57:09 24° ENE 03:59:59 10° NE visible
01 Feb 3.7 05:44:36 43° NW 05:45:03 43° NW 05:51:20 10° NNE visible
02 Feb 6.2 03:14:08 11° ENE 03:14:08 11° ENE 03:14:29 10° ENE visible
02 Feb 3.9 05:01:35 50° N 05:01:35 50° N 05:06:38 10° NNE visible
02 Feb 5.0 06:49:03 13° WNW 06:52:28 20° NNW 06:57:17 10° NNE visible
